When you browse on this site, cookies collect data to enhance your experience and personalize the content and advertising you see.
Visit our Privacy Policy to learn more. By continuing to use the site, you agree to this use of cookies and data.
  • In Hungary
  • List of Countries
  • For 7 days
  • Water Temperature
  • Satellite Maps
  • Weather Map
  • News
  • Weather Widgets
  • user-avatar
    Login

    Hourly Weather Lewisville

    Today, 21 February, Thursday

    Time Temperature Precipitation Wind Pressure Humidity
    00:00 +9°C° 0 mm 3 mps 747 mmHg 57%
    01:00 +9°C° 0 mm 3 mps 748 mmHg 58%
    02:00 +8°C° 0 mm 3 mps 748 mmHg 59%
    03:00 +8°C° 0 mm 3 mps 748 mmHg 60%
    04:00 +8°C° 0 mm 3 mps 748 mmHg 62%
    05:00 +7°C° 0 mm 3 mps 748 mmHg 63%
    06:00 +7°C° 0 mm 3 mps 748 mmHg 65%
    07:00 +8°C° 0 mm 3 mps 748 mmHg 64%
    08:00 +7°C° 0 mm 4 mps 749 mmHg 63%
    09:00 +7°C° 0 mm 4 mps 749 mmHg 62%
    10:00 +10°C° 0 mm 4 mps 749 mmHg 57%
    11:00 +11°C° 0 mm 4 mps 749 mmHg 53%
    12:00 +12°C° 0 mm 5 mps 749 mmHg 48%
    13:00 +12°C° 0 mm 4 mps 748 mmHg 50%
    14:00 +12°C° 0 mm 4 mps 747 mmHg 52%
    15:00 +13°C° 0 mm 4 mps 747 mmHg 54%
    16:00 +12°C° 0 mm 4 mps 747 mmHg 59%
    17:00 +12°C° 0 mm 4 mps 747 mmHg 64%
    18:00 +12°C° 0 mm 4 mps 747 mmHg 70%
    19:00 +11°C° 0 mm 4 mps 747 mmHg 73%
    20:00 +11°C° 0 mm 4 mps 748 mmHg 77%
    21:00 +10°C° 0 mm 3 mps 748 mmHg 81%
    22:00 +10°C° 0 mm 3 mps 748 mmHg 83%
    23:00 +10°C° 0 mm 4 mps 748 mmHg 85%

    Tomorrow, 22 February, Friday

    Time Temperature Precipitation Wind Pressure Humidity
    00:00 +8°C° 0 mm 4 mps 748 mmHg 88%
    01:00 +8°C° 0 mm 4 mps 748 mmHg 88%
    02:00 +10°C° 0 mm 3 mps 748 mmHg 89%
    03:00 +10°C° 0 mm 3 mps 748 mmHg 90%
    04:00 +10°C° 0.1 mm 3 mps 748 mmHg 91%
    05:00 +10°C° 0.1 mm 3 mps 747 mmHg 91%
    06:00 +10°C° 0.1 mm 3 mps 747 mmHg 92%
    07:00 +10°C° 0.1 mm 3 mps 748 mmHg 93%
    08:00 +11°C° 0.1 mm 3 mps 748 mmHg 93%
    09:00 +12°C° 0.1 mm 2 mps 748 mmHg 93%
    10:00 +12°C° 1.1 mm 2 mps 748 mmHg 94%
    11:00 +13°C° 1.1 mm 2 mps 748 mmHg 95%
    12:00 +13°C° 1.1 mm 2 mps 748 mmHg 96%
    13:00 +13°C° 1.2 mm 2 mps 747 mmHg 97%
    14:00 +14°C° 1.2 mm 2 mps 746 mmHg 97%
    15:00 +13°C° 1.2 mm 3 mps 745 mmHg 97%
    16:00 +13°C° 0.1 mm 3 mps 745 mmHg 97%
    17:00 +13°C° 0.1 mm 3 mps 745 mmHg 97%
    18:00 +13°C° 0.1 mm 3 mps 745 mmHg 97%
    19:00 +15°C° 0 mm 2 mps 745 mmHg 97%
    20:00 +15°C° 0 mm 2 mps 745 mmHg 98%
    21:00 +15°C° 0 mm 2 mps 745 mmHg 98%
    22:00 +15°C° 0 mm 2 mps 744 mmHg 98%
    23:00 +15°C° 0 mm 2 mps 744 mmHg 98%

    Day after tomorrow, 23 February, Saturday

    Time Temperature Precipitation Wind Pressure Humidity
    00:00 +16°C° 0 mm 2 mps 743 mmHg 98%
    01:00 +16°C° 0.1 mm 3 mps 743 mmHg 98%
    02:00 +16°C° 0.1 mm 3 mps 742 mmHg 98%
    03:00 +17°C° 0.1 mm 3 mps 741 mmHg 98%
    04:00 +17°C° 2.5 mm 4 mps 741 mmHg 97%
    05:00 +18°C° 2.5 mm 4 mps 740 mmHg 95%
    06:00 +17°C° 2.5 mm 5 mps 740 mmHg 93%
    07:00 +17°C° 0.1 mm 6 mps 741 mmHg 74%
    08:00 +16°C° 0.1 mm 8 mps 742 mmHg 56%
    09:00 +16°C° 0.1 mm 9 mps 743 mmHg 37%
    10:00 +17°C° 0 mm 10 mps 743 mmHg 32%
    11:00 +17°C° 0 mm 10 mps 743 mmHg 27%
    12:00 +18°C° 0 mm 11 mps 743 mmHg 23%
    13:00 +18°C° 0 mm 11 mps 743 mmHg 23%
    14:00 +19°C° 0 mm 11 mps 743 mmHg 24%
    15:00 +21°C° 0 mm 12 mps 743 mmHg 24%
    16:00 +18°C° 0 mm 10 mps 744 mmHg 30%
    17:00 +17°C° 0 mm 9 mps 745 mmHg 35%
    18:00 +15°C° 0 mm 7 mps 746 mmHg 40%
    19:00 +14°C° 0 mm 6 mps 747 mmHg 38%
    20:00 +14°C° 0 mm 5 mps 748 mmHg 36%
    21:00 +13°C° 0 mm 4 mps 749 mmHg 34%
    22:00 +12°C° 0 mm 4 mps 750 mmHg 33%
    23:00 +11°C° 0 mm 4 mps 751 mmHg 32%

    24 February, Sunday

    Time Temperature Precipitation Wind Pressure Humidity
    00:00 +10°C° 0 mm 4 mps 751 mmHg 31%
    01:00 +10°C° 0 mm 3 mps 752 mmHg 32%
    02:00 +9°C° 0 mm 3 mps 752 mmHg 33%
    03:00 +8°C° 0 mm 2 mps 753 mmHg 34%
    04:00 +8°C° 0 mm 2 mps 753 mmHg 36%
    05:00 +7°C° 0 mm 2 mps 753 mmHg 37%
    06:00 +7°C° 0 mm 2 mps 754 mmHg 39%
    07:00 +7°C° 0 mm 2 mps 755 mmHg 38%
    08:00 +8°C° 0 mm 2 mps 755 mmHg 38%
    09:00 +8°C° 0 mm 2 mps 756 mmHg 37%
    10:00 +10°C° 0 mm 2 mps 756 mmHg 34%
    11:00 +13°C° 0 mm 2 mps 756 mmHg 30%
    12:00 +14°C° 0 mm 2 mps 756 mmHg 26%
    13:00 +15°C° 0 mm 2 mps 756 mmHg 26%
    14:00 +16°C° 0 mm 2 mps 755 mmHg 25%
    15:00 +17°C° 0 mm 2 mps 755 mmHg 24%
    16:00 +16°C° 0 mm 2 mps 754 mmHg 28%
    17:00 +14°C° 0 mm 3 mps 754 mmHg 32%
    18:00 +14°C° 0 mm 3 mps 754 mmHg 36%
    19:00 +13°C° 0 mm 3 mps 755 mmHg 38%
    20:00 +12°C° 0 mm 3 mps 755 mmHg 41%
    21:00 +11°C° 0 mm 3 mps 756 mmHg 44%
    22:00 +11°C° 0 mm 3 mps 756 mmHg 45%
    23:00 +10°C° 0 mm 3 mps 756 mmHg 47%

    25 February, Monday

    Time Temperature Precipitation Wind Pressure Humidity
    00:00 +10°C° 0 mm 3 mps 756 mmHg 49%
    01:00 +9°C° 0 mm 3 mps 756 mmHg 51%
    02:00 +9°C° 0 mm 3 mps 756 mmHg 53%
    03:00 +7°C° 0 mm 4 mps 756 mmHg 56%
    04:00 +7°C° 0 mm 4 mps 756 mmHg 57%
    05:00 +7°C° 0 mm 4 mps 756 mmHg 59%
    06:00 +6°C° 0 mm 4 mps 756 mmHg 60%
    07:00 +7°C° 0 mm 5 mps 757 mmHg 58%
    08:00 +8°C° 0 mm 5 mps 757 mmHg 55%
    09:00 +8°C° 0 mm 6 mps 758 mmHg 52%
    10:00 +10°C° 0 mm 6 mps 757 mmHg 49%
    11:00 +11°C° 0 mm 6 mps 757 mmHg 46%
    12:00 +14°C° 0 mm 6 mps 757 mmHg 42%
    13:00 +15°C° 0 mm 6 mps 756 mmHg 41%
    14:00 +16°C° 0 mm 6 mps 755 mmHg 40%
    15:00 +17°C° 0 mm 5 mps 754 mmHg 38%
    16:00 +16°C° 0 mm 5 mps 754 mmHg 42%
    17:00 +15°C° 0 mm 5 mps 754 mmHg 45%
    18:00 +15°C° 0 mm 5 mps 754 mmHg 49%
    19:00 +14°C° 0 mm 5 mps 754 mmHg 50%
    20:00 +14°C° 0 mm 5 mps 755 mmHg 52%
    21:00 +13°C° 0 mm 5 mps 755 mmHg 54%
    22:00 +12°C° 0 mm 5 mps 755 mmHg 54%
    23:00 +12°C° 0 mm 5 mps 755 mmHg 55%

    26 February, Tuesday

    Time Temperature Precipitation Wind Pressure Humidity
    00:00 +12°C° 0 mm 5 mps 754 mmHg 55%
    01:00 +11°C° 0 mm 4 mps 754 mmHg 57%
    02:00 +11°C° 0 mm 4 mps 754 mmHg 58%
    03:00 +10°C° 0 mm 4 mps 754 mmHg 60%
    04:00 +10°C° 0 mm 3 mps 754 mmHg 61%
    05:00 +10°C° 0 mm 3 mps 754 mmHg 62%
    06:00 +10°C° 0 mm 3 mps 754 mmHg 63%
    07:00 +10°C° 0 mm 3 mps 754 mmHg 64%
    08:00 +11°C° 0 mm 3 mps 754 mmHg 65%
    09:00 +11°C° 0 mm 3 mps 754 mmHg 66%
    10:00 +12°C° 0 mm 4 mps 754 mmHg 66%
    11:00 +13°C° 0 mm 4 mps 753 mmHg 65%
    12:00 +14°C° 0 mm 5 mps 753 mmHg 65%
    13:00 +16°C° 0 mm 5 mps 752 mmHg 65%
    14:00 +17°C° 0 mm 5 mps 751 mmHg 65%
    15:00 +19°C° 0 mm 5 mps 750 mmHg 65%
    16:00 +17°C° 0 mm 5 mps 750 mmHg 70%
    17:00 +17°C° 0 mm 4 mps 750 mmHg 76%
    18:00 +17°C° 0 mm 4 mps 750 mmHg 81%
    19:00 +15°C° 0 mm 4 mps 750 mmHg 83%
    20:00 +15°C° 0 mm 4 mps 751 mmHg 85%
    21:00 +14°C° 0 mm 4 mps 751 mmHg 87%
    22:00 +14°C° 0 mm 4 mps 750 mmHg 89%
    23:00 +14°C° 0 mm 3 mps 750 mmHg 90%
    Show more